Regional Weather Roundup
Issued by NWS Newport/Morehead, NC

Home | Current Version | Previous Version | Text Only | Print | Product List | Glossary On
Versions: 1 2 3 4 5 6 7 8 9 10 11 12 13 14 15 16 17 18 19 20 21 22 23 24 25 26 27 28 29 30 31 32 33 34 35 36 37 38 39 40 41 42 43 44 45 46 47 48 49 50
427
ASUS42 KMHX 070514
RWRMHX
WEATHER ROUNDUP FOR EASTERN NORTH CAROLINA
NATIONAL WEATHER SERVICE NEWPORT/MOREHEAD CITY NC
1200 AM EST SAT DEC 07 2019

NOTE: "FAIR" INDICATES FEW OR NO CLOUDS BELOW 12,000 FEET
WITH NO SIGNIFICANT WEATHER AND/OR OBSTRUCTIONS TO VISIBILITY

NCZ015>017-031-032-045>047-102-103-070600-
NORTH COAST

CITY           SKY/WX    TMP DP  RH WIND       PRES   REMARKS
EDENTON        NOT AVBL
ELIZABETH CITY CLOUDY    48  38  68 SW8       30.16F
KITTY HAWK     FAIR      52  39  61 MISG      30.14F
MANTEO         FAIR      51  41  67 W3        30.17S

$$

NCZ045>047-081-094-103-104-070600-
CENTRAL COAST

CITY           SKY/WX    TMP DP  RH WIND       PRES   REMARKS
FRISCO         CLOUDY    54  47  77 W3        30.18F

$$

NCZ095-097-098-100-101-070600-
SOUTHERN COAST

CITY           SKY/WX    TMP DP  RH WIND       PRES   REMARKS
BEAUFORT       FAIR      52  50  93 CALM      30.18F
CEDAR ISLAND   NOT AVBL
JACKSONVILLE   FOG       49  48  97 CALM      30.17F VSB 1
PINEY ISLAND   CLOUDY    51  47  86 S6        30.18F
WILMINGTON     MOCLDY    51  50  96 CALM      30.18F FOG


$$

NCZ011>013-027>030-043-044-078>080-089-090>093-098-070600-
COASTAL PLAIN

CITY           SKY/WX    TMP DP  RH WIND       PRES   REMARKS
AHOSKIE        NOT AVBL
CLINTON        FAIR      48  48 100 CALM      30.19S
ELIZABETHTOWN  MOCLDY    49  47  93 CALM      30.19F
GOLDSBORO      CLOUDY    48  44  83 CALM      30.16F
GREENVILLE     FAIR      45  41  87 CALM      30.19S
HAVELOCK       MOCLDY    51  48  89 CALM      30.19F
KENANSVILLE    CLOUDY    48  46  93 CALM      30.18F
KINSTON        MOCLDY    49  44  83 CALM      30.19S
NEW BERN       FAIR      48  45  89 CALM      30.19F
RICHLANDS      CLOUDY    49  48  97 CALM      30.18F
ROCKY MOUNT    CLOUDY    47  41  80 SW3       30.18F
WASHINGTON     CLOUDY    48  43  81 CALM      30.18F
WHITEVILLE     FAIR      49  49  98 CALM      30.18F

$$

AMZ130-135-150-152-154-156-158-170-250-252-270-ANZ085-086-088-633-658-670-070600-
MARINE OBSERVATIONS

STATION/POSITION TIME  TEMP    WIND        PRES    WAVE   SWELL
                       AIR SEA DIR/SP/G            HT/PER HT/PER
                 (UTC) (F)     (DEG/KT/KT) (MB)    (FT/S) (FT/S)
64 E VA BEACH    0450   57 57  260/ 16/ 17 1020.8    2/ 4
DUCK             0430   53     250/  9/ 12 1020.8
2 E DUCK         0500      53                N/A     1
10 NE DUCK       0500      54                N/A     1/11
OREGON INLET     0430   51 50  210/  7/  7 1021.4
13E OREGON INLT  0446      55                N/A     1/ 4   2/ 6
HATTERAS CG      0430   53 53  250/  3/  5 1022.0
DIAMOND BUOY     0500   60 72  290/ 10/ 12 1021.4
CAPE LOOKOUT     0500   55        CALM     1022.1
BEAUFORT LAB     0430   53 54  310/  1/  2 1022.4
30 SE NEW RVR IN 0408   59 65   40/  6/ 10 1022.2
30 SE NEW RVR IN 0500      65                N/A     2/ 4
27 SE WRIGHTSVLE 0408   60 65   50/  8/ 12 1022.0
5 SE WRIGHTSVLE  0408   56 58   50/  4/  8 1022.0
27 SE WRIGHTSVL  0408   60 65   50/  8/ 12 1022.0
FRYING PAN BUOY  0500   62 75   30/ 14/ 17 1021.2
225 S CAPE HAT   0500   69     150/ 10/ 14 1021.8
41 SE CHARLESTON 0450      73              1020.6    2/ 8   2/ 8

$$




USA.gov is the U.S. government's official web portal to all federal, state and local government web resources and services.